Location: El Cambur
(10.2851°N, 67.4340°W)
Time: 11:49:40
(UTC+00:00)

Lacrosse 4 Rocket - Pass Details

Date: 13 June 2024
Orbit: 525 x 593 km, 68.0° (Epoch: 22 July)

Event Time Altitude Azimuth Distance (km) Brightness Sun altitude
Rises 23:08:02 0° 351° (N) 2,776 5.4 -4.5°
Reaches altitude 10° 23:10:19 10° 357° (N) 1,889 4.5 -5.0°
Maximum altitude 23:14:23 45° 70° (ENE) 803 1.9 -5.9°
Drops below altitude 10° 23:18:31 10° 143° (SE) 1,917 3.5 -6.8°
Enters shadow 23:19:45 - 147° (SSE) 2,397 4.1 -7.1°
